Regional Weather Roundup
Issued by NWS

Home | Current Version | Previous Version | Text Only | Print | Product List | Glossary On
Versions: 1 2 3 4 5 6 7 8 9 10 11 12 13 14 15 16 17 18 19 20 21 22 23 24 25 26 27 28 29 30 31 32 33 34 35 36 37 38 39 40 41 42 43 44 45 46 47 48 49 50
000
ASUS44 KLUB 031801
RWRTX
WEST TEXAS WEATHER ROUNDUP
NATIONAL WEATHER SERVICE LUBBOCK TX
100 PM CDT SUN MAY 03 2015

NOTE: "FAIR" INDICATES FEW OR NO CLOUDS BELOW 12,000 FEET WITH NO
SIGNIFICANT WEATHER AND/OR OBSTRUCTIONS TO VISIBILITY.

TXZ004-006>008-010-012-014-016-OKZ002-031900-
TEXAS PANHANDLE/OKLAHOMA PANHANDLE

CITY           SKY/WX    TMP DP  RH WIND       PRES   REMARKS
AMARILLO       SUNNY     81  47  30 S13G23    29.96S
BORGER         SUNNY     83  45  26 S8        29.91F
DALHART        SUNNY     82  41  23 SW12      29.94F
DUMAS          SUNNY     82  43  24 SW9       29.93S
GUYMON         MOSUNNY   84  45  25 VRB3      29.87F
$$

TXZ026-029-035-045-048-031900-
SOUTHERN PANHANDLE/SOUTH PLAINS/ROLLING PLAINS

CITY           SKY/WX    TMP DP  RH WIND       PRES   REMARKS
CHILDRESS      SUNNY     81  53  37 S24G32    29.93S
LUBBOCK        MOSUNNY   81  51  35 S20       29.95F
$$

TXZ052-054-060>062-072-078-127-140-154-169-031900-
PERMIAN BASIN/CONCHO VALLEY/BIG COUNTRY/EDWARDS PLATEAU

CITY           SKY/WX    TMP DP  RH WIND       PRES   REMARKS
ABILENE        SUNNY     78  59  51 S12       30.00F
BRADY          MOSUNNY   79  55  44 S13       30.01F
JUNCTION       MOSUNNY   76  56  49 S12G21    30.02F
MIDLAND        SUNNY     81  54  39 S17       29.96F
ODESSA         SUNNY     81  52  36 S14       29.97F
SAN ANGELO     SUNNY     79  57  46 S15       30.00F
SWEETWATER     SUNNY     76  58  53 S9        30.02F
WINK           MOSUNNY   80  50  34 SE9       29.93F
$$

TXZ055-058-074-075-080-082-031900-
FAR WEST/SOUTHWEST MOUNTAINS/TRANS PECOS

CITY           SKY/WX    TMP DP  RH WIND       PRES   REMARKS
ALPINE         MOSUNNY   82  41  23 SW9       30.07F
DRYDEN           N/A     78  60  53 E8G17     29.97F
EL PASO        MOSUNNY   81  35  19 SE6       29.98F
FORT STOCKTON  MOSUNNY   82  53  36 SE14      29.96F
MARFA          SUNNY     79  43  27 SE10      30.06F
$$

TXZ014-016-019-021>030-083-031900
TEXAS TECH WEST TEXAS MESONET/TEXAS PANHANDLE/NORTHERN SOUTH PLAINS

CITY           SKY/WX    TMP DP  RH WIND       PRES   REMARKS
ABERNATHY 5ENE   N/A     80  49  33 S16       29.97S
AMARILLO 9NNE    N/A     82  50  32 S16       29.93S
AMARILLO 7SSE    N/A     79  48  34 SW16      29.97F
AMHERST 1NE      N/A     78  46  32 S15       29.96F
BOOTLEG 11WNW    N/A     77  45  32 SW10      30.00F
CANADIAN 6E      N/A     83  52  33 SW14      29.89S
CAPROCK CYN SP   N/A     82  49  31 S14       29.93F
CHILDRESS 2NNE   N/A     81  51  36 S20       29.93S
CLARENDON 2WSW   N/A     81  47  29 S9        29.94S
CLAUDE 12SW      N/A     79  47  32 SW10      29.96S
DIMMITT 2NE      N/A     79  47  32 S14       29.97F
FLOYDADA 2NNE    N/A     79  48  32 S17       29.96F
FRIONA 2NE       N/A     81  45  28 S14       29.98S
GOODLETT 3W      N/A     81  54  38 S17       29.92F
HART 3N          N/A     79  47  32 S13       29.96F
HEREFORD 2NW     N/A     75  47  36 S9        29.97S
MCLEAN 1E        N/A     80  49  33 S9        29.94S
MEMPHIS 1NE      N/A     82  51  33 S8        29.92S
MULESHOE 2SSW    N/A     79  45  29 S13       29.97F
OLTON 6S         N/A     80  45  28 S15       29.96F
PALO DURO SP     N/A     80  42  26 S13       29.98S
PAMPA 2E         N/A     80  48  32 SW10      29.94S
PLAINVIEW 1S     N/A     78  43  28 S14       29.95S
SILVERTON 7ESE   N/A     82  48  31 S13       29.95F
TULIA 2ENE       N/A     84  42  22 S14       29.95F
TURKEY 2WSW      N/A     83  49  30 S15       29.92S
UMBARGER 3NNE    N/A     74  49  42 S6        29.98S
$$

TXZ033>036-039>041-045>048-031900
TEXAS TECH WEST TEXAS MESONET/SOUTH PLAINS

CITY           SKY/WX    TMP DP  RH WIND       PRES   REMARKS
AIKEN 3WSW       N/A     80  51  35 S20       29.96F
ANDREWS 2NE      N/A     82  49  31 SE13      29.97F
ANTON 6SSW       N/A     80  47  31 S16       29.96F
BROWNFIELD 2S    N/A     77  49  36 S14       29.97F
GAIL 2ESE        N/A     80  56  42 SE13      29.97F
LAMESA 2SE       N/A     79  56  45 SE14      29.98F
LEVELLAND 4S     N/A     78  46  32 S15       29.97F
LUBBOCK 3WNW     N/A     80  49  33 S14       29.97S
MORTON 1ENE      N/A     76  45  32 S12       29.97F
ODONNELL 1N      N/A     78  52  40 S12       29.98F
PLAINS 3N        N/A     74  48  39 S12       29.99S
RALLS 1SE        N/A     77  52  41 S17       29.98F
REESE CENTER     N/A     78  47  33 S18       29.97S
SEAGRAVES 1SW    N/A     79  49  35 S12       29.97F
SEMINOLE 2NNE    N/A     80  48  33 SE12      29.97F
SLATON 2NE       N/A     77  53  43 S14       29.98S
SNYDER 3E        N/A     79  58  49 S12       29.98F
SUNDOWN 8SW      N/A     75  48  38 S14       29.98S
TAHOKA 3NNE      N/A     77  52  40 S16       29.97F
WOLFFORTH 6SSW   N/A     80  51  35 S15       29.97F
$$

TXZ031-032-036>038-042>044-031900-
TEXAS TECH WEST TEXAS MESONET/ROLLING PLAINS

CITY           SKY/WX    TMP DP  RH WIND       PRES   REMARKS
ASPERMONT 3NE    N/A     80  57  46 S13       29.97F
FLUVANNA 3WNW    N/A     76  55  48 SE14      29.98F
GRAHAM 5SSW      N/A     76  53  44 SE15      29.97F
GUTHRIE 10WSW    N/A     79  56  45 S10       29.96S
HASKELL 1NW      N/A     76  57  51 S13       29.97F
JAYTON 1SSE      N/A     78  56  47 S15       29.97F
KNOX CITY 3NW    N/A     80  55  42 S13       29.97S
LK A HENRY 1NW   N/A     77  57  49 S14       29.97F
NORTHFIELD 1S    N/A     82  53  36 S15       29.93S
ODELL 4ENE       N/A     80  56  44 S20       29.94F
PADUCAH 10SW     N/A     80  55  41 S17       29.95S
POST 1NE         N/A     77  55  46 SE14      29.96F
RRING SPRGS 3N   N/A     78  56  46 S17       29.96S
SEYMOUR 3NW      N/A     81  55  41 S13       29.96F
SPUR 1W          N/A     76  54  45 S13       29.96F
WEINERT 2NNE     N/A     78  60  52 S15       29.98S
WHITE RVR 6NE    N/A     75  53  46 S14       29.97F
$$

TXZ052-054-060>062-072-078-127-140-154-169-031900-
TEXAS TECH WEST TEXAS MESONET/PERMIAN BASIN/
CONCHO VALLEY/BIG COUNTRY/EDWARDS PLATEAU

CITY           SKY/WX    TMP DP  RH WIND       PRES   REMARKS
COYANOSA 2N      N/A     84  51  31 SE6       29.94F
JUNCTION 1SSW    N/A     75  58  54 SE13      30.03F
MERTZON 3NNE     N/A     76  58  52 S15       30.02S
SAN ANGELO 7NW   N/A     78  56  47 S14       30.01S
STRLNG CT 4WSW   N/A     78  57  49 SE16      30.00F
ST LAWRNCE 5SW   N/A     76  56  51 S20       30.00S
SWEETWATR 11SW   N/A     75  58  53 S16       30.01F
WALL 1E          N/A     78  56  47 S12       30.01F
$$

TXZ055-058-074-075-080-082-031900-
TEXAS TECH WEST TEXAS MESONET/FAR WEST/SOUTHWEST MOUNTAINS/TRANS PECOS

CITY           SKY/WX    TMP DP  RH WIND       PRES   REMARKS
PRSMN GAP BBNP   N/A     79  52  39 NE10      29.97F
$$



USA.gov is the U.S. government's official web portal to all federal, state and local government web resources and services.